Torna al catalogo

COSMOS 590

AttivoMilitareLEO
NORAD 6847·PAYLOAD·🇷🇺 Russia

Lanciato Oct 2, 1973 da Plesetsk Cosmodrome

Loading…

Prossimi Passaggi (prossime 24 ore)

TLE

AggiornatoSource: Space-Track

Epoca: Sep 14, 2026, 14:11 UTC

1 06847U 73069C   26257.59129134 -.00000005  00000-0  70198-4 0  9991
2 06847  73.9985 114.0240 0034719 223.5798 164.1504 12.51111609418258

Traccia COSMOS 590 in tempo reale con AllMySat

Download on the App Store